Regional Weather Roundup
Issued by NWS Upton, NY

Current Version | Previous Version | Text Only | Print | Product List | Glossary On
Versions: 1 2 3 4 5 6 7 8 9 10 11 12 13 14 15 16 17 18 19 20 21 22 23 24 25 26 27 28 29 30 31 32 33 34 35 36 37 38 39 40 41 42 43 44 45 46 47 48 49 50
000 ASUS41 KOKX 021905 RWROKX REGIONAL WEATHER ROUNDUP NATIONAL WEATHER SERVICE NEW YORK NY 200 PM EST MON MAR 02 2015 NOTE: "FAIR" INDICATES FEW OR NO CLOUDS BELOW 12,000 FEET WITH NO SIGNIFICANT WEATHER AND/OR OBSTRUCTIONS TO VISIBILITY. NYZ071-072-176-178-NJZ106-104-022000- NEW YORK CITY METRO AREA CITY SKY/WX TMP DP RH WIND PRES REMARKS CENTRAL PARK SUNNY 38 12 34 VRB3G17 30.15F LAGUARDIA APRT MOSUNNY 37 14 38 NW21 30.13F WCI 26 KENNEDY INTL MOSUNNY 37 14 38 NW21G32 30.14F WCI 26 NEWARK/LIBERTY MOSUNNY 38 15 39 NW18G25 30.14F WCI 28 BRNX BOT. GARD N/A N/A N/A N/A NW15 30.12F TETERBORO SUNNY 38 12 34 NW14G21 30.13F WCI 30 $$ NYZ177-179-078>081-022000- LONG ISLAND NEW YORK CITY SKY/WX TMP DP RH WIND PRES REMARKS FARMINGDALE SUNNY 36 14 40 NW15G26 30.12F WCI 27 ISLIP MOSUNNY 35 14 42 NW23G32 30.09S WCI 23 SHIRLEY SUNNY 35 15 44 NW23G33 30.10F WCI 23 WESTHAMPTON SUNNY 36 14 40 W22G32 30.09S WCI 25 MONTAUK POINT N/A 35 23 61 W13G21 30.06S WCI 26 $$ NYZ052-065-067-022000- HUDSON VALLEY CITY SKY/WX TMP DP RH WIND PRES REMARKS WHITE PLAINS MOSUNNY 34 12 40 NW23G33 30.09F WCI 22 NEWBURGH PTSUNNY 34 14 44 NW18G30 30.13S WCI 23 MONTGOMERY MIX PCPN 34 13 41 NW21G28 30.11S WCI 22 POUGHKEEPSIE CLOUDY 35 12 38 W18 30.12S WCI 24 ALBANY PTSUNNY 30 14 51 NW23G37 30.10F WCI 17 $$ NJZ001-105-106-008-010-013-015-019>022-104-022000- NEW JERSEY CITY SKY/WX TMP DP RH WIND PRES REMARKS NEWARK/LIBERTY MOSUNNY 38 15 39 NW18G25 30.14F WCI 28 TETERBORO SUNNY 38 12 34 NW14G21 30.13F WCI 30 CALDWELL SUNNY 37 12 35 NW12G22 30.14F WCI 29 MORRISTOWN MOSUNNY 37 10 32 NW14G29 30.14F WCI 29 SOMERVILLE SUNNY 39 12 33 NW16G24 30.13F WCI 30 SUSSEX SUNNY 34 11 38 W15G26 30.13F WCI 24 ANDOVER N/A 35 11 36 NW8G22 30.13F WCI 29 TRENTON SUNNY 37 13 37 NW16G26 30.16F WCI 28 MILLVILLE NOT AVBL ATLANTIC CITY SUNNY 40 19 43 NW22G30 30.17F WCI 30 WRIGHTSTOWN SUNNY 37 16 43 NW14G23 30.15F WCI 28 TOMS RIVER SUNNY 37 16 41 W25G32 30.16F WCI 26 BELMAR SUNNY 37 16 41 NW14G30 30.14F WCI 29 $$ PAZ047>061-062-071-022000- EASTERN PENNSYLVANIA CITY SKY/WX TMP DP RH WIND PRES REMARKS PHILADELPHIA MOSUNNY 39 16 39 NW17G24 30.22F WCI 30 ALLENTOWN SUNNY 36 12 37 W18G28 30.17F WCI 26 SCRANTON SUNNY 33 11 39 NW15G25 30.16S WCI 23 $$ CTZ002-004>006-009-010-012-RIZ004-006-007-MAZ004-011-015-022000- SOUTHERN NEW ENGLAND IN CT CITY SKY/WX TMP DP RH WIND PRES REMARKS BRADLEY INTL PTSUNNY 33 14 45 NW16G33 30.06S WCI 23 HARTFORD PTSUNNY 33 13 43 NW12G26 30.08S WCI 24 DANBURY SUNNY 34 9 35 W13G24 30.09F WCI 25 WTRBRY/OXFORD MOSUNNY 34 9 35 NW16G25 30.05S WCI 23 BRIDGEPORT SUNNY 35 16 45 W22G31 30.08F WCI 23 MERIDEN SUNNY 35 12 38 NW15G26 30.06F WCI 25 NEW HAVEN MOSUNNY 36 14 40 NW15G21 30.06F WCI 27 CHESTER FAIR 34 12 40 NW12G20 30.05R WCI 25 GROTON MOSUNNY 34 15 46 NW22G32 30.04F WCI 22 WILLIMANTIC LGT RAIN 33 13 43 NW14G37 30.04F WCI 23 IN RI CITY SKY/WX TMP DP RH WIND PRES REMARKS PROVIDENCE MOSUNNY 35 12 38 NW14G31 30.01S WCI 26 BLOCK ISLAND SUNNY 36 18 48 NW14G28 30.03R WCI 27 WESTERLY MOSUNNY 36 14 40 W12G28 30.04S WCI 28 IN MA CITY SKY/WX TMP DP RH WIND PRES REMARKS BOSTON LGT RAIN 35 13 40 NW24G41 29.96S WCI 23 WORCESTER PTSUNNY 29 12 49 W22G28 29.94F WCI 15 WESTFIELD PTSUNNY 32 12 43 NW24G36 30.04F WCI 19 PROVINCETOWN SUNNY 36 19 51 W28G33 29.94R WCI 23 NANTUCKET SUNNY 36 21 54 NW23G31 29.95R WCI 24 $$ ANZ330-335-338-340-345-350-353-355-022000- COASTAL MARINE OBSERVATIONS STATION/POSITION TIME SKY/WX TEMP WIND PRES VSBY WAVE AIR SEA DIR/SP/G HT/PER (UTC) (F) (DEG/KT/KT) (MB) (MI) (FT/S) NY HARB ENTRANCE 1900 36 38 310/ 19/ 23 1020.5 4/ 4 4S FIRE IS 1800 32 N/A 4/ 8 20S FIRE ISLAND 1800 37 1020.4 6/ 5 23SW MTP 1900 N/A 6/ 9 HUDSON CANYON NOT AVBL EXECUTION ROCKS NOT AVBL WESTERN LI SOUND NOT AVBL CENTRAL LI SOUND NOT AVBL EASTERN LI SOUND NOT AVBL ROBBINS REEF 1900 36 320/ 20/ 25 1019.4 $$ >>>>>>>>>>>>>>>>>>>>>>>>>>>> KEY <<<<<<<<<<<<<<<<<<<<<<<<<<< > < > SKY/WX - SKY CONDITION/PRESENT WEATHER < > TMP - TEMPERATURE IN FAHRENHEIT < > DP - DEWPOINT IN FAHRENHEIT < > RH - RELATIVE HUMIDITY IN PERCENT < > WIND - DIRECTION AND SPEED IN MPH < > PRES - MEAN SEA LEVEL PRESSURE IN INCHES OF HG < > WCI - WIND CHILL INDEX < > VSB - VISIBILITY IN MILES < > HX - HEAT INDEX < > TC - TEMPERATURE IN CELSIUS < > VRB - VARIABLE WIND DIRECTION < > < >>>>>>>>>>>>>>>>>>>>>>>>>>>> KEY <<<<<<<<<<<<<<<<<<<<<<<<<<<

USA.gov is the U.S. government's official web portal to all federal, state and local government web resources and services.